This demonstration page uses our WeatherBlox Daily Observations layout. Learn more.

Left ArrowRight Arrow

41.55636, -103.73856

Hourly Observations for September 4, 2015

Temp ( °F °C ) Dew Point ( °F °C ) Humidity (%) Winds ( mph kmh ) Pressure ( in mb ) Visibility ( mi km ) Precip ( " mm )
12:53 am 00:53 Mostly Clear 63 17.2 59 15 87 87 SE 3 6 29.71 1006 10 16.0934 0 0
1:53 am 01:53 Clear 61 16.1 57 13.9 87 87 ESE 6 9 29.71 1006 10 16.0934 0 0
2:53 am 02:53 Clear 59 15 55 12.8 87 87 NNW 3 6 29.74 1007 10 16.0934 0 0
3:53 am 03:53 Clear 58 14.4 53 11.7 84 84 NNE 5 7 29.74 1007 10 16.0934 0 0
4:53 am 04:53 Clear 58 14.4 53 11.7 84 84 Calm 29.75 1007 10 16.0934 0 0
5:53 am 05:53 Clear 54 12.2 52 11.1 93 93 ENE 5 7 29.76 1008 10 16.0934 0 0
6:53 am 06:53 Sunny 55 12.8 52 11.1 90 90 Calm 29.78 1008 10 16.0934 0 0
7:53 am 07:53 Sunny 61 16.1 55 12.8 81 81 SW 3 6 29.79 1009 10 16.0934 0 0
8:53 am 08:53 Sunny 68 20 54 12.2 61 61 Calm 29.79 1009 10 16.0934 0 0
9:53 am 09:53 Sunny 74 23.3 54 12.2 50 50 VRB 3 6 29.79 1009 10 16.0934 0 0
10:53 am 10:53 Sunny 80 26.7 49 9.4 34 34 WSW 6 9 29.78 1008 10 16.0934 0 0
11:53 am 11:53 Sunny 84 28.9 50 10 31 31 VRB 3 6 29.77 1008 10 16.0934 0 0
12:53 pm 12:53 Sunny 90 32.2 44 6.7 20 20 Calm 29.74 1007 10 16.0934 0 0
1:53 pm 13:53 Sunny 89 31.7 43 6.1 20 20 SE 7 11 29.73 1007 10 16.0934 0 0
2:53 pm 14:53 Sunny 89 31.7 39 3.9 17 17 SE 9 15 29.73 1007 10 16.0934 0 0
3:53 pm 15:53 Sunny 92 33.3 41 5 17 17 ESE 9 15 29.71 1006 10 16.0934 0 0
4:53 pm 16:53 Sunny 89 31.7 47 8.3 23 23 E 9 15 29.71 1006 10 16.0934 0 0
5:53 pm 17:53 Sunny 82 27.8 51 10.6 34 34 ENE 6 9 29.73 1007 10 16.0934 0 0
6:53 pm 18:53 Partly Cloudy 81 27.2 49 9.4 33 33 E 8 13 29.73 1007 10 16.0934 0 0
7:53 pm 19:53 Partly Cloudy 79 26.1 51 10.6 38 38 E 8 13 29.72 1007 10 16.0934 0 0
8:53 pm 20:53 Partly Cloudy 75 23.9 52 11.1 45 45 E 3 6 29.73 1007 10 16.0934 0 0
9:53 pm 21:53 Mostly Clear 76 24.4 50 10 40 40 NNW 3 6 29.72 1007 10 16.0934 0 0
10:53 pm 22:53 Mostly Cloudy 71 21.7 55 12.8 57 57 undefined N/A 29.72 1007 10 16.0934 0 0
11:53 pm 23:53 Clear 67 19.4 55 12.8 66 66 ESE 3 6 29.72 1006 10 16.0934 0 0

Powered by AerisWeather